Temperature
18 18 18 18 18 18 18 18 18 18 18 17 17 17 17 17 17 16 16 16 16 16 15 15 15 15 15 15 15 14 14 14 14 15 15 15 15 15 15 15 15 16 16
17 18 18 18 18 18 18 18 18 18 17 17 17 17 17 17 16 16 16 16 16 15 15 15 15 14 14 14 14 14 14 14 14 14 14 14 15 15 15 15 15 15 15
18 18 18 18 18 18 18 18 18 17 17 17 17 17 17 17 16 16 16 16 15 15 15 15 14 14 14 14 14 13 13 13 13 13 13 13 14 14 14 14 14 15 15
18 18 18 18 18 18 18 18 18 17 17 17 17 17 17 16 16 16 15 15 15 15 15 14 14 14 14 13 13 13 13 13 13 13 13 13 13 13 13 14 14 14 14
18 18 18 18 18 18 18 18 18 17 17 17 17 17 16 16 16 15 15 15 15 15 14 14 14 14 13 13 13 13 13 13 13 12 12 12 12 12 12 13 13 14 14
19 18 18 18 18 18 18 18 18 17 17 17 17 16 16 16 16 15 15 15 15 14 14 14 14 13 13 13 13 13 12 12 12 12 12 12 12 12 12 12 12 13 13
19 19 18 18 18 18 18 18 18 17 17 17 16 16 16 16 15 15 15 15 14 14 14 14 13 13 13 13 12 12 12 12 12 12 12 11 11 11 11 11 11 12 12
19 19 19 19 19 19 18 18 18 18 17 17 16 16 16 15 15 15 14 14 14 14 13 13 13 13 13 12 12 12 12 12 12 11 11 11 11 11 11 11 11 11 11
20 20 20 20 20 19 19 19 18 18 17 17 17 16 16 15 15 15 14 14 14 14 13 13 13 13 13 12 12 12 12 12 11 11 11 11 11 11 11 11 11 10 10
20 21 20 20 20 20 19 19 18 18 18 17 17 16 16 15 15 15 14 14 14 14 13 13 13 13 13 12 12 12 12 12 11 11 11 11 11 11 11 11 11 10 10
21 21 21 21 21 20 20 19 19 18 18 17 17 16 16 15 15 15 14 14 14 14 14 13 13 13 13 12 12 12 12 12 11 11 11 11 11 11 11 10 10 10 10
22 22 22 21 21 20 20 19 19 18 18 17 17 16 16 15 15 15 15 14 14 14 14 13 13 13 13 12 12 12 12 12 11 11 11 11 11 11 10 10 10 10 10
22 22 22 21 21 21 20 20 19 19 18 18 17 17 16 16 15 15 15 15 14 14 14 14 13 13 13 13 12 12 12 12 11 11 11 11 11 11 10 10 10 10 10
22 22 22 22 22 21 21 20 20 19 18 18 17 17 17 16 16 15 15 15 15 14 14 14 14 13 13 13 12 12 12 12 11 11 11 11 11 11 10 10 10 10 10
22 22 22 22 22 21 21 20 20 19 19 18 18 17 17 16 16 16 15 15 15 14 14 14 14 13 13 13 12 12 12 12 12 11 11 11 11 10 10 10 10 10 9
22 22 22 22 22 21 21 21 20 19 19 18 18 17 17 17 16 16 16 15 15 15 14 14 14 13 13 13 13 12 12 12 12 11 11 11 11 10 10 10 10 9 9
23 23 22 22 22 21 21 21 20 20 19 18 18 17 17 17 16 16 16 15 15 15 14 14 14 14 13 13 13 12 12 12 12 11 11 11 11 10 10 10 10 9 9
22 22 22 22 22 21 21 20 20 19 19 19 18 18 17 17 17 16 16 16 15 15 15 14 14 14 13 13 13 12 12 12 12 12 11 11 11 10 10 10 10 10 9
22 22 22 22 22 22 21 20 20 19 19 19 18 18 18 17 17 16 16 16 15 15 15 14 14 14 13 13 13 12 12 12 12 12 11 11 11 11 10 10 10 10 10
21 21 21 21 21 21 20 20 20 19 19 19 18 18 18 17 17 16 16 16 15 15 14 14 14 14 13 13 13 12 12 12 12 12 11 11 11 10 10 10 9 9 10
20 20 20 21 21 20 20 19 19 19 19 18 18 18 17 17 16 16 16 15 15 15 14 14 14 14 13 13 13 13 12 12 12 12 12 11 11 10 10 10 9 9 9
20 20 20 20 20 19 19 19 19 18 18 18 17 17 17 16 16 16 15 15 15 14 14 14 14 14 13 13 13 13 12 12 12 12 12 11 11 11 10 10 10 9 9
19 19 19 19 18 18 18 18 18 17 17 17 16 16 16 16 15 15 15 14 14 14 14 13 13 13 13 13 13 13 13 12 12 12 12 11 11 11 10 10 10 9 9
18 18 18 18 17 17 17 17 16 16 16 16 16 15 15 15 15 14 14 14 13 13 13 13 13 13 13 13 13 13 12 12 12 12 11 11 11 11 11 10 10 10 9
17 17 17 16 16 16 16 15 15 15 15 15 15 14 14 14 13 13 13 13 12 12 12 12 12 12 12 12 12 12 12 12 12 12 11 11 11 11 11 10 10 10 9
16 16 15 15 15 15 14 14 14 14 14 14 13 13 13 12 12 12 12 12 12 12 11 11 11 11 11 12 12 12 12 12 11 11 11 11 11 11 11 10 10 10 9
Wind_Speed
2 3 4 5 5 5 5 6 7 5 5 4 3 3 3 2 2 2 3 4 5 6 6 4 3 3 3 2 2 2 2 2 2 2 3 3 3 3 2 2 2 3 5
3 4 4 5 5 5 5 6 7 6 5 4 3 3 3 3 2 2 3 3 4 5 5 4 3 3 3 3 2 2 1 1 2 1 1 3 4 3 3 2 2 3 3
5 5 5 5 7 7 7 8 7 6 6 5 4 4 4 4 3 2 2 2 2 4 4 5 4 3 3 2 2 2 2 1 1 1 2 1 2 3 3 3 3 4 3
6 6 7 7 8 8 7 7 7 6 6 6 6 6 4 3 2 1 1 2 3 2 3 4 4 3 2 2 1 2 1 2 0 1 0 1 2 1 3 3 3 4 4
8 8 9 9 8 8 7 7 6 6 5 6 6 6 5 3 2 2 2 2 2 3 2 3 4 3 2 2 2 2 2 2 2 1 0 0 0 1 2 4 4 4 3
9 8 8 8 7 7 7 7 7 5 5 6 6 7 7 6 5 3 2 1 1 2 2 3 3 2 2 2 2 2 2 2 2 2 2 2 1 2 2 3 3 4 4
9 9 9 9 9 9 9 8 8 6 6 6 6 6 7 6 6 4 3 3 1 0 0 1 1 1 2 2 2 2 2 2 2 3 2 3 3 2 2 3 3 3 3
9 10 11 11 11 10 10 9 9 7 7 7 6 5 6 5 4 4 4 4 3 2 2 2 2 2 2 2 2 2 2 2 3 3 3 3 3 3 3 3 2 3 3
11 11 10 10 11 11 11 11 10 8 8 7 7 6 6 5 5 4 4 3 3 2 2 2 2 2 2 2 2 2 3 2 3 3 4 3 3 3 4 4 4 3 4
11 11 10 11 11 10 9 9 9 9 8 8 7 6 6 6 5 4 4 4 4 3 3 3 3 3 2 2 2 2 3 3 4 3 4 4 3 3 3 4 4 5 5
13 12 11 10 10 9 9 10 9 8 8 8 7 6 6 5 5 5 5 4 4 4 4 4 3 3 3 3 3 4 4 4 5 4 4 5 4 4 3 3 4 5 5
11 11 10 10 9 10 10 11 10 10 10 9 8 7 6 6 5 5 5 5 5 4 4 4 4 4 4 4 4 5 5 5 6 6 5 6 5 5 4 4 5 5 6
10 9 9 10 11 11 11 11 11 11 10 9 8 7 7 7 7 7 6 5 5 5 5 5 5 5 5 5 5 6 6 6 7 7 7 7 6 7 5 5 6 5 5
10 10 10 11 11 11 11 11 11 10 9 9 9 9 9 9 8 7 6 6 6 6 6 6 6 6 6 6 6 6 7 7 7 7 7 8 7 8 8 6 7 6 6
10 12 13 12 11 10 10 11 11 10 10 10 10 10 9 7 7 7 7 6 6 7 6 6 6 6 6 7 7 7 7 8 8 8 8 9 10 12 9 8 7 7 6
11 12 11 11 12 13 12 11 11 10 10 11 11 9 8 7 8 8 7 7 7 6 6 7 7 7 7 9 11 8 8 8 9 9 9 9 10 12 12 13 12 10 9
11 11 11 12 13 13 12 12 12 10 10 11 10 9 9 9 9 8 7 8 8 7 7 8 8 9 10 13 13 12 9 9 10 10 10 9 9 9 8 10 11 11 13
8 9 10 10 10 9 9 9 8 9 10 10 9 9 9 10 8 7 8 9 6 7 7 8 9 9 11 13 14 13 9 10 11 11 11 11 11 10 9 9 9 10 10
6 7 8 7 7 8 8 8 8 8 9 9 10 9 9 9 8 9 10 8 6 8 8 7 9 9 11 14 14 12 7 9 11 11 11 11 12 13 12 9 10 11 10
1 1 4 4 5 5 7 8 8 8 10 10 9 8 8 9 9 10 8 6 6 8 8 9 9 10 12 14 15 12 7 9 10 9 10 13 14 14 12 10 10 11 12
4 3 4 4 4 5 7 6 6 9 9 7 6 5 6 7 7 6 5 6 6 7 7 9 9 10 12 14 16 14 9 9 10 9 9 9 13 15 15 12 11 14 12
6 5 4 3 4 6 7 6 6 5 3 3 4 4 4 4 4 4 5 5 6 6 7 8 9 9 10 12 14 15 15 13 10 10 10 10 12 14 14 11 13 15 11
5 4 5 5 5 4 5 5 2 2 4 3 2 2 2 2 2 3 5 4 4 5 6 7 8 9 8 9 14 16 16 15 11 11 13 13 13 12 11 14 15 12 8
6 5 7 7 5 4 4 3 3 4 5 4 2 1 0 1 1 2 3 4 5 6 7 7 8 9 9 9 8 8 8 10 10 10 10 12 12 11 11 10 9 9 9
6 6 6 6 5 5 5 3 3 5 5 4 2 2 1 1 2 3 3 5 6 7 8 8 8 9 10 12 12 9 7 7 7 5 5 5 5 7 7 8 8 8 7
6 6 7 6 5 4 4 3 4 5 5 4 2 1 1 2 2 4 5 7 9 12 13 14 13 11 14 17 17 15 15 13 9 5 6 8 8 9 9 9 8 8 8
Wind_Direction
157 149 149 151 141 132 136 136 140 145 136 125 125 121 118 107 91 105 122 128 134 136 130 125 115 111 103 96 90 90 60 25 1 7 336 327 326 315 300 297 291 296 288
143 141 161 170 150 144 155 152 156 155 150 140 130 127 122 110 97 77 88 108 134 144 145 140 134 126 113 98 88 95 93 23 28 70 34 349 342 343 357 347 346 333 331
173 168 170 174 152 163 171 168 160 150 142 130 115 96 77 65 63 58 55 45 116 151 152 152 144 138 132 138 132 127 131 121 16 52 126 123 294 315 327 345 353 346 337
181 176 173 180 177 178 167 159 150 142 139 137 137 136 136 142 159 137 95 51 71 115 151 153 153 150 146 152 163 139 137 138 145 355 12 185 187 244 315 322 336 343 340
189 184 182 186 184 176 164 155 148 144 144 143 142 134 131 138 126 107 95 69 46 63 112 146 155 156 158 169 170 149 146 154 171 192 202 134 93 209 232 291 318 328 319
190 185 181 177 178 168 159 155 153 154 150 145 143 146 148 148 140 137 130 97 52 35 67 123 142 158 168 182 187 178 173 181 186 194 193 192 203 212 215 254 287 302 302
185 180 178 181 182 175 171 166 163 165 160 154 157 162 161 159 162 166 166 160 157 179 182 127 146 168 197 201 189 187 200 197 202 212 217 220 225 215 207 231 265 283 295
188 189 189 187 185 180 175 172 172 174 171 169 172 171 166 164 170 174 174 182 191 203 201 187 200 214 219 216 201 212 226 213 221 230 225 232 239 224 215 217 231 277 290
195 197 192 188 184 181 182 180 178 180 181 180 174 176 177 177 181 180 179 188 201 207 203 206 214 231 236 229 210 226 239 231 236 239 238 238 246 236 231 226 218 232 271
198 197 193 191 190 186 182 177 180 186 185 182 184 188 187 188 183 176 188 200 209 208 208 223 232 244 243 231 219 234 239 236 246 240 240 245 248 248 239 231 226 222 236
200 199 196 191 185 177 175 180 184 183 184 188 190 187 187 187 184 193 206 205 209 210 217 227 233 242 246 238 229 241 242 243 253 251 244 253 252 252 249 237 230 226 222
202 198 191 181 179 182 183 187 187 189 193 189 186 190 188 185 193 209 217 211 217 221 223 227 234 244 246 242 239 252 251 246 255 257 251 257 255 251 251 244 242 237 227
198 193 186 187 190 190 189 191 192 195 192 183 184 188 190 194 205 215 217 213 217 226 227 225 234 243 248 249 248 249 255 253 254 255 253 258 253 256 252 246 247 247 245
195 192 194 196 195 192 191 192 195 193 186 182 186 194 201 204 210 213 214 215 218 224 230 231 237 243 249 253 255 253 254 257 257 256 253 255 250 253 254 251 248 247 249
197 200 202 199 193 189 191 193 194 189 183 183 192 205 207 207 209 213 217 218 221 228 231 236 244 246 248 250 250 250 253 253 260 262 257 256 255 252 248 249 247 242 246
203 202 199 193 193 195 195 193 195 189 179 188 200 204 199 201 211 218 217 220 228 232 230 236 243 248 250 250 250 247 251 254 257 264 266 263 263 262 259 254 249 238 241
206 198 194 193 195 196 191 193 195 181 182 194 201 200 199 205 214 217 215 223 229 228 233 239 240 247 253 255 258 255 249 251 254 256 261 266 262 255 260 264 264 256 245
204 205 200 195 191 185 185 184 172 177 189 198 203 202 201 211 212 210 220 226 223 225 234 240 240 246 257 256 256 257 253 253 254 252 251 255 262 259 253 260 264 264 259
214 205 196 193 183 176 174 162 170 177 188 203 210 208 203 207 209 215 223 223 220 229 232 238 239 245 258 258 257 254 251 254 258 255 249 246 253 255 248 248 258 267 269
45 151 141 134 155 168 151 159 176 183 202 208 209 204 198 203 212 220 225 221 222 235 238 244 244 244 254 258 255 247 242 252 259 260 253 243 243 250 246 240 246 259 267
60 83 110 131 149 139 142 163 178 203 212 199 190 190 197 207 218 224 226 228 231 240 246 253 258 254 253 260 259 248 232 241 252 257 259 252 239 242 245 239 239 246 255
63 78 99 103 100 125 145 166 200 216 174 162 177 197 206 215 222 224 237 236 234 243 254 261 270 267 259 254 259 253 238 232 240 250 255 254 248 245 247 245 242 245 251
64 79 100 92 78 104 135 158 196 130 130 139 174 213 214 214 223 230 246 249 243 249 261 263 269 274 272 263 253 256 252 239 234 246 247 250 254 255 256 250 247 247 245
66 75 88 87 75 77 98 121 117 120 117 119 121 107 88 306 259 239 241 249 256 261 265 266 269 272 275 275 270 262 260 252 242 247 253 256 256 252 253 258 255 244 238
66 77 88 91 86 81 79 77 90 105 103 99 86 68 36 327 306 292 268 263 258 252 256 266 266 269 274 271 263 263 263 254 248 246 251 253 253 254 254 254 254 250 242
73 79 84 87 82 82 73 60 72 92 96 83 63 44 6 326 311 306 303 276 267 276 267 257 257 262 259 271 278 273 263 257 239 218 243 251 251 253 256 258 260 254 246
Height
1511 1513 1516 1519 1522 1525 1528 1531 1534 1536 1539 1541 1542 1544 1546 1547 1549 1550 1551 1552 1553 1553 1554 1554 1554 1554 1554 1554 1554 1554 1553 1553 1553 1552 1552 1551 1551 1551 1551 1551 1551 1552 1552
1510 1513 1516 1518 1521 1524 1528 1530 1534 1536 1539 1540 1542 1544 1545 1546 1548 1549 1550 1551 1552 1552 1553 1553 1553 1553 1553 1553 1553 1553 1552 1552 1551 1551 1550 1549 1550 1549 1549 1549 1549 1549 1549
1509 1512 1515 1517 1521 1525 1528 1530 1533 1535 1537 1540 1541 1543 1544 1546 1547 1548 1549 1550 1551 1551 1552 1552 1552 1552 1552 1552 1551 1551 1551 1550 1550 1550 1550 1549 1548 1548 1548 1547 1547 1547 1547
1509 1511 1514 1517 1521 1525 1528 1530 1533 1535 1537 1539 1540 1542 1543 1544 1546 1547 1548 1549 1549 1550 1550 1550 1551 1551 1551 1550 1550 1549 1549 1549 1549 1548 1548 1548 1547 1547 1546 1546 1545 1545 1545
1508 1510 1513 1517 1521 1524 1527 1530 1532 1535 1537 1538 1540 1541 1542 1544 1544 1545 1546 1547 1548 1548 1548 1549 1549 1549 1549 1549 1548 1548 1547 1547 1547 1546 1546 1546 1545 1545 1544 1543 1543 1543 1543
1506 1510 1513 1517 1520 1524 1527 1529 1532 1534 1536 1537 1539 1540 1541 1542 1543 1544 1545 1545 1546 1546 1546 1547 1547 1547 1547 1547 1546 1546 1545 1545 1544 1544 1544 1543 1543 1543 1542 1541 1540 1539 1540
1505 1508 1512 1515 1519 1522 1525 1528 1531 1533 1535 1537 1538 1539 1540 1541 1542 1542 1543 1544 1544 1544 1545 1545 1545 1545 1545 1544 1544 1544 1543 1543 1542 1542 1541 1541 1541 1540 1540 1539 1538 1537 1536
1504 1507 1510 1514 1517 1521 1524 1527 1530 1532 1534 1536 1537 1538 1539 1540 1540 1541 1541 1542 1542 1543 1543 1543 1543 1542 1542 1542 1542 1541 1541 1540 1540 1539 1539 1538 1538 1537 1537 1536 1536 1534 1533
1501 1505 1509 1512 1516 1519 1522 1526 1528 1531 1533 1534 1536 1537 1538 1538 1539 1539 1539 1540 1540 1540 1541 1541 1540 1540 1540 1540 1539 1539 1538 1538 1537 1537 1536 1535 1535 1534 1534 1533 1533 1533 1530
1499 1502 1506 1510 1513 1517 1521 1524 1527 1529 1531 1533 1534 1536 1536 1537 1537 1537 1537 1538 1538 1538 1538 1538 1538 1538 1538 1537 1537 1536 1536 1535 1534 1534 1533 1532 1532 1531 1530 1530 1529 1529 1528
1495 1499 1503 1507 1511 1515 1518 1521 1524 1527 1529 1531 1533 1534 1534 1535 1535 1535 1536 1536 1536 1536 1536 1536 1536 1536 1536 1535 1534 1534 1533 1532 1531 1531 1530 1529 1528 1527 1527 1526 1525 1525 1524
1492 1496 1500 1504 1508 1511 1515 1518 1521 1524 1526 1528 1530 1531 1532 1533 1533 1534 1534 1535 1535 1535 1535 1534 1534 1534 1533 1533 1532 1531 1530 1529 1528 1527 1526 1525 1524 1523 1523 1522 1521 1520 1519
1489 1493 1497 1500 1504 1507 1511 1514 1518 1520 1523 1525 1527 1529 1530 1531 1531 1532 1533 1533 1533 1533 1533 1532 1532 1532 1531 1530 1529 1528 1527 1526 1525 1524 1522 1522 1520 1519 1518 1517 1517 1516 1515
1485 1489 1492 1496 1499 1503 1507 1510 1514 1517 1520 1522 1524 1525 1527 1528 1529 1530 1530 1531 1531 1530 1530 1530 1529 1529 1528 1527 1526 1525 1523 1522 1521 1520 1518 1517 1516 1515 1514 1513 1512 1511 1510
1480 1484 1487 1491 1495 1499 1503 1506 1510 1513 1515 1518 1520 1522 1524 1525 1526 1527 1527 1528 1528 1528 1528 1527 1526 1526 1524 1523 1522 1521 1519 1518 1517 1515 1514 1513 1511 1510 1509 1508 1507 1506 1505
1475 1478 1482 1486 1490 1494 1498 1501 1505 1508 1511 1514 1516 1518 1520 1521 1523 1524 1524 1525 1525 1525 1524 1524 1523 1522 1521 1520 1518 1517 1515 1514 1512 1511 1509 1508 1506 1505 1504 1502 1501 1500 1499
1470 1473 1476 1480 1484 1489 1493 1497 1501 1504 1507 1510 1512 1515 1516 1517 1519 1520 1521 1521 1521 1521 1521 1520 1519 1518 1517 1516 1514 1512 1511 1509 1507 1506 1504 1502 1501 1500 1498 1497 1496 1495 1494
1468 1471 1473 1477 1481 1485 1490 1494 1498 1501 1503 1505 1508 1510 1512 1513 1515 1516 1517 1517 1517 1517 1516 1516 1515 1513 1512 1511 1510 1508 1506 1504 1502 1501 1499 1497 1495 1494 1492 1491 1489 1488 1488
1466 1468 1471 1475 1478 1482 1486 1490 1494 1496 1499 1501 1504 1506 1508 1509 1511 1511 1512 1513 1513 1512 1512 1511 1510 1508 1507 1506 1505 1503 1501 1499 1497 1495 1493 1491 1489 1488 1487 1485 1483 1482 1481
1466 1467 1470 1473 1476 1480 1484 1487 1490 1493 1495 1497 1500 1502 1504 1505 1506 1507 1508 1508 1508 1507 1507 1505 1504 1503 1501 1501 1499 1497 1495 1492 1491 1489 1487 1485 1483 1482 1481 1479 1477 1475 1474
1465 1467 1469 1471 1475 1478 1481 1484 1487 1489 1491 1494 1496 1498 1500 1501 1502 1503 1503 1503 1503 1502 1501 1499 1498 1497 1495 1494 1493 1491 1488 1486 1484 1482 1480 1479 1477 1475 1474 1472 1470 1469 1468
1464 1466 1468 1471 1473 1476 1479 1481 1483 1486 1489 1491 1493 1494 1496 1497 1498 1498 1498 1498 1497 1495 1494 1493 1491 1490 1489 1487 1486 1484 1482 1480 1477 1475 1473 1472 1470 1469 1467 1465 1464 1463 1461
1465 1467 1469 1471 1473 1475 1477 1479 1481 1484 1486 1487 1489 1490 1491 1492 1492 1492 1492 1492 1491 1489 1487 1486 1484 1482 1482 1480 1478 1476 1475 1472 1469 1467 1466 1465 1463 1461 1460 1458 1457 1456 1454
1466 1468 1469 1470 1472 1474 1476 1478 1480 1481 1483 1484 1485 1486 1487 1487 1486 1486 1486 1485 1483 1482 1480 1478 1476 1475 1473 1472 1471 1469 1467 1465 1462 1460 1458 1457 1456 1454 1452 1451 1450 1448 1446
1469 1470 1470 1471 1473 1474 1475 1477 1478 1479 1480 1481 1482 1482 1482 1482 1481 1480 1480 1478 1477 1476 1473 1471 1470 1467 1465 1464 1463 1461 1458 1456 1455 1453 1451 1449 1448 1446 1445 1443 1442 1440 1438
1471 1471 1471 1472 1473 1475 1475 1476 1477 1477 1478 1478 1478 1478 1478 1477 1476 1475 1474 1473 1472 1470 1467 1465 1463 1460 1458 1456 1454 1453 1450 1448 1447 1445 1443 1441 1440 1439 1437 1435 1434 1432 1430